Weather History for Tomahawk, WI

Change the Weather History Date:

Wednesday, June 5, 2013

  Actual Average (KRHI) Record (KRHI)
Temperature  
Mean Temperature 50 °F 59 °F  
Max Temperature 53 °F 71 °F 90 °F (1988)
Min Temperature 47 °F 47 °F 28 °F (1998)
Degree Days  
Heating Degree Days 16 7  
Month to date heating degree days 37  
Since 1 June heating degree days 37  
Since 1 July heating degree days 8923  
Cooling Degree Days 0 1  
Month to date cooling degree days 5  
Year to date cooling degree days 17  
Since 1 June cooling degree days 5  
Moisture  
Dew Point 48 °F    
Average Humidity 92    
Maximum Humidity 96    
Minimum Humidity 85    
Precipitation  
Precipitation 0.01 in 0.13 in 1.57 in (1944)
Month to date precipitation 0.63  
Year to date precipitation 10.31  
Snow  
Snow 0.00 in - 0.00 in ()
Month to date snowfall  
Since 1 June snowfall  
Since 1 July snowfall  
Snow Depth -    
Sea Level Pressure  
Sea Level Pressure 30.09 in    
Wind  
Wind Speed 4 mph (East)    
Max Wind Speed 10 mph    
Max Gust Speed 16 mph    
Visibility 7 miles    
Events Rain    
T = Trace of Precipitation, MM = Missing Value Source: NWS Daily Summary

Daily Weather History Graph

Daily Weather History Graph

Search for Another Location

Airport:

Trip Planner

Search our weather history database for the weather conditions in past years. The results will help you decide how hot, cold, wet, or windy it might be!

Date:

Astronomy

Jun. 05, 2013 Rise Set
Actual Time 5:12 AM CDT 8:43 PM CDT
Civil Twilight 4:34 AM CDT 9:21 PM CDT
Nautical Twilight 3:45 AM CDT 10:10 PM CDT
Astronomical Twilight 2:41 AM CDT 11:15 PM CDT
Moon 3:23 AM CDT (6/5) 6:04 PM CDT (6/5)
Length of Visible Light 16h 46m
Length of Day
15h 31m
Waning Crescent, 8% of the Moon is Illuminated
Jun 5
Waning Crescent
Jun 8
New
Jun 16
First Quarter
Jun 23
Full
Jun 29
Last Quarter

Hourly Weather History & Observations

Time (CDT) Temp. Dew Point Humidity Pressure Visibility Wind Dir Wind Speed Gust Speed Precip Events Conditions
12:15 AM 50.5 °F 47.5 °F 89% 30.17 in 10.0 mi Calm Calm - N/A   Overcast
12:35 AM 50.5 °F 47.5 °F 89% 30.17 in 10.0 mi East 3.5 mph - N/A   Overcast
12:55 AM 50.5 °F 47.3 °F 89% 30.17 in 10.0 mi East 3.5 mph - N/A   Light Drizzle
1:15 AM 50.4 °F 47.3 °F 89% 30.16 in 10.0 mi East 3.5 mph - N/A   Overcast
1:35 AM 50.2 °F 47.5 °F 90% 30.16 in 10.0 mi Calm Calm - N/A Rain Light Rain
1:55 AM 49.6 °F 47.3 °F 92% 30.16 in 7.0 mi Calm Calm - N/A Rain Rain
2:15 AM 49.1 °F 46.9 °F 92% 30.15 in 7.0 mi East 3.5 mph - N/A   Overcast
2:35 AM 48.9 °F 46.9 °F 93% 30.16 in 10.0 mi Calm Calm - N/A   Overcast
2:55 AM 48.7 °F 46.9 °F 93% 30.15 in 5.0 mi East 3.5 mph - N/A   Drizzle
3:15 AM 48.4 °F 46.8 °F 94% 30.14 in 3.0 mi East 5.8 mph - N/A Rain Rain
3:35 AM 48.6 °F 46.9 °F 94% 30.14 in 4.0 mi ESE 3.5 mph - N/A Rain Light Rain
3:55 AM 48.6 °F 46.9 °F 94% 30.13 in 4.0 mi East 4.6 mph - N/A   Light Drizzle
4:15 AM 48.4 °F 46.9 °F 95% 30.14 in 4.0 mi SE 3.5 mph - N/A Rain Rain
4:35 AM 48.2 °F 46.8 °F 95% 30.13 in 4.0 mi ESE 4.6 mph - N/A Rain Rain
4:55 AM 48.2 °F 46.8 °F 95% 30.12 in 4.0 mi ESE 5.8 mph - N/A Rain Rain
5:15 AM 48.2 °F 46.8 °F 95% 30.12 in 3.0 mi ESE 5.8 mph - N/A Rain Rain
5:35 AM 48.2 °F 46.9 °F 95% 30.13 in 3.0 mi ESE 4.6 mph - N/A Rain Rain
5:55 AM 48.2 °F 46.9 °F 95% 30.13 in 2.5 mi East 4.6 mph - N/A Rain Rain
6:15 AM 48.0 °F 46.6 °F 95% 30.13 in 3.0 mi ESE 3.5 mph - N/A Rain Rain
6:35 AM 48.2 °F 46.8 °F 95% 30.13 in 2.0 mi East 5.8 mph - N/A Rain Rain
6:55 AM 47.8 °F 46.6 °F 95% 30.12 in 3.0 mi East 5.8 mph - N/A Rain Rain
7:15 AM 47.5 °F 46.4 °F 96% 30.13 in 2.5 mi Calm Calm - N/A Rain Rain
7:35 AM 47.7 °F 46.4 °F 95% 30.13 in 5.0 mi East 5.8 mph - N/A Rain Light Rain
7:55 AM 48.2 °F 46.8 °F 95% 30.12 in 5.0 mi East 3.5 mph - N/A   Overcast
8:15 AM 47.8 °F 46.4 °F 95% 30.12 in 5.0 mi NE 4.6 mph - N/A Rain Light Rain
8:35 AM 47.5 °F 46.2 °F 95% 30.11 in 7.0 mi ENE 4.6 mph - N/A   Light Drizzle
8:55 AM 48.2 °F 46.8 °F 95% 30.12 in 10.0 mi East 5.8 mph - N/A   Overcast
9:15 AM 47.8 °F 46.4 °F 95% 30.12 in 10.0 mi East 4.6 mph - N/A   Overcast
9:35 AM 48.2 °F 46.6 °F 94% 30.12 in 7.0 mi ENE 5.8 mph - N/A Rain Light Rain
9:55 AM 49.5 °F 48.2 °F 95% 30.11 in 4.0 mi East 6.9 mph - N/A   Light Drizzle
10:15 AM 49.5 °F 47.8 °F 94% 30.11 in 10.0 mi East 6.9 mph - N/A   Overcast
10:35 AM 50.0 °F 48.2 °F 94% 30.11 in 10.0 mi ENE 4.6 mph - N/A   Overcast
10:55 AM 51.1 °F 49.1 °F 93% 30.11 in 10.0 mi ENE 4.6 mph - N/A Rain Light Rain
11:15 AM 51.3 °F 49.3 °F 93% 30.10 in 10.0 mi ESE 6.9 mph - N/A   Overcast
11:35 AM 51.6 °F 48.7 °F 90% 30.10 in 10.0 mi ESE 5.8 mph - N/A   Overcast
11:55 AM 52.5 °F 48.9 °F 88% 30.09 in 10.0 mi East 5.8 mph - N/A   Overcast
12:15 PM 52.7 °F 48.4 °F 85% 30.09 in 10.0 mi ESE 5.8 mph - N/A   Overcast
12:35 PM 52.2 °F 48.7 °F 88% 30.09 in 10.0 mi ESE 9.2 mph - N/A   Overcast
12:55 PM 52.0 °F 48.2 °F 87% 30.09 in 10.0 mi ESE 6.9 mph - N/A   Overcast
1:15 PM 52.3 °F 48.6 °F 87% 30.08 in 10.0 mi ESE 6.9 mph - N/A   Overcast
1:35 PM 52.0 °F 48.4 °F 88% 30.08 in 10.0 mi ESE 4.6 mph - N/A Rain Rain
1:55 PM 51.3 °F 48.6 °F 90% 30.08 in 7.0 mi ESE 4.6 mph - N/A Rain Rain
2:15 PM 51.1 °F 48.9 °F 92% 30.07 in 3.0 mi ESE 4.6 mph - N/A Rain Rain
2:35 PM 51.1 °F 49.1 °F 93% 30.05 in 2.5 mi East 10.4 mph 16.1 mph N/A Rain Rain
2:55 PM 51.4 °F 49.5 °F 93% 30.04 in 3.0 mi East 10.4 mph - N/A Rain Light Rain
3:15 PM 51.4 °F 49.3 °F 92% 30.05 in 5.0 mi ESE 8.1 mph 16.1 mph N/A   Light Drizzle
3:35 PM 52.0 °F 49.6 °F 92% 30.04 in 10.0 mi East 9.2 mph - N/A   Overcast
3:55 PM 51.3 °F 49.1 °F 92% 30.04 in 7.0 mi ESE 8.1 mph - N/A Rain Light Rain
4:15 PM 51.3 °F 49.1 °F 92% 30.04 in 10.0 mi ESE 6.9 mph - N/A   Light Drizzle
4:35 PM 51.8 °F 49.5 °F 92% 30.03 in 10.0 mi ESE 5.8 mph - N/A   Overcast
4:55 PM 52.2 °F 49.8 °F 92% 30.03 in 10.0 mi East 5.8 mph - N/A   Overcast
5:15 PM 52.3 °F 49.8 °F 91% 30.02 in 10.0 mi ESE 5.8 mph - N/A   Overcast
5:35 PM 52.5 °F 49.6 °F 90% 30.02 in 10.0 mi ESE 4.6 mph - N/A   Overcast
5:55 PM 52.3 °F 49.8 °F 91% 30.01 in 10.0 mi ESE 5.8 mph - N/A   Overcast
6:15 PM 52.7 °F 49.6 °F 89% 30.01 in 10.0 mi East 8.1 mph - N/A   Overcast
6:35 PM 52.7 °F 49.5 °F 89% 30.00 in 10.0 mi East 8.1 mph - N/A   Overcast
6:55 PM 52.0 °F 49.1 °F 90% 30.00 in 10.0 mi ESE 6.9 mph - N/A   Overcast
7:15 PM 51.8 °F 48.6 °F 89% 30.02 in 10.0 mi East 5.8 mph - N/A   Overcast
7:35 PM 51.3 °F 47.8 °F 88% 30.03 in 10.0 mi East 4.6 mph - N/A Rain Light Rain
7:55 PM 50.2 °F 47.5 °F 90% 30.04 in 2.0 mi ESE 4.6 mph - N/A Rain Rain
8:15 PM 49.5 °F 47.3 °F 92% 30.03 in 2.5 mi East 4.6 mph - N/A Rain Heavy Rain
8:35 PM 49.1 °F 47.3 °F 93% 30.04 in 4.0 mi East 3.5 mph - N/A Rain Rain
8:55 PM 48.7 °F 47.1 °F 94% 30.04 in 5.0 mi Calm Calm - N/A Rain Light Rain
9:15 PM 48.4 °F 46.8 °F 94% 30.04 in 5.0 mi East 3.5 mph - N/A Rain Light Rain
9:35 PM 48.4 °F 46.9 °F 95% 30.04 in 5.0 mi East 3.5 mph - N/A Rain Rain
9:55 PM 48.6 °F 47.1 °F 95% 30.05 in 4.0 mi NE 3.5 mph - N/A Rain Rain
10:15 PM 48.4 °F 46.9 °F 95% 30.05 in 4.0 mi ENE 3.5 mph - N/A Rain Light Rain
10:35 PM 48.4 °F 46.9 °F 95% 30.05 in 4.0 mi Calm Calm - N/A Rain Light Rain
10:55 PM 48.4 °F 47.3 °F 96% 30.05 in 4.0 mi East 3.5 mph - N/A Rain Rain
11:15 PM 48.4 °F 47.1 °F 95% 30.04 in 4.0 mi East 4.6 mph - N/A Rain Light Rain
11:35 PM 48.4 °F 47.1 °F 95% 30.04 in 5.0 mi East 4.6 mph - N/A Rain Light Rain
11:55 PM 48.2 °F 46.8 °F 95% 30.03 in 5.0 mi East 4.6 mph - N/A Rain Light Rain